#timestamp,LO_Frequency,Hit,StdDev 
1604494815.3,286047003.4,N
1604494835.1,286047001.5,N
1604494855.9,286047002.7,N
1604494875.7,286046998.3,N
1604494895.5,286046996.1,N
1604494915.4,286046992.4,N
1604494935.2,286046993.3,N
1604494955.1,286046995.9,N
1604494956.0,286046995.9,N
1604494975.8,286046994.0,N
1604494995.6,286046993.8,N
1604495015.5,286046993.3,N
1604495035.3,286046995.8,N
1604495055.2,286046996.1,N
1604495075.9,286046994.7,N
1604495095.7,286046995.6,N
1604495115.6,286047001.2,N
1604495135.4,286047000.9,N
1604495155.2,286046998.7,N
1604495175.1,286047004.5,N
1604495176.0,286047004.5,N
1604495195.8,286047007.0,N
1604495215.7,286047004.6,N
1604495235.5,286047008.0,N
1604495255.3,286047012.2,N
1604495275.2,286047010.1,N
1604495295.0,286047009.9,N
1604495295.9,286047009.9,N
1604495315.8,286047011.8,N
1604495335.6,286047009.9,N
1604495355.5,286047010.3,N
1604495375.3,286047008.8,N
1604495395.1,286047004.2,N
1604495415.9,286047003.7,N
1604495435.7,286047006.9,N
1604495455.6,286047005.0,N
1604495475.4,286047001.3,N
1604495495.2,286047006.5,N
1604495515.1,286047006.2,N
1604495516.0,286047006.2,N
1604495535.8,286047007.0,N
1604495555.6,286047006.3,N
1604495575.5,286047008.9,N
1604495595.3,286047012.3,N
1604495615.2,286047011.6,N
1604495635.9,286047015.5,Y
1604495655.7,286047004.2,P
1604495675.6,286046995.6,P
1604495695.4,286046999.4,N
1604495715.2,286046995.3,N
1604495735.1,286046995.1,N
1604495736.0,286046995.1,N
1604495755.8,286046993.9,N
1604495775.7,286046996.0,N
1604495795.5,286046994.8,N
1604495815.3,286046994.4,N
1604495835.2,286046988.8,N
1604495855.0,286046985.3,Y
1604495855.9,286046985.3,P
1604495875.8,286046991.5,N
1604495895.6,286046989.1,N
1604495915.4,286046987.1,Y
1604495935.3,286046997.2,P
1604495955.1,286046998.0,N
1604495975.8,286047001.0,N
1604495995.7,286047001.8,N
1604496015.5,286047008.6,N
1604496035.4,286047011.3,N
1604496055.2,286047009.3,N
1604496075.0,286047008.9,N
1604496075.9,286047008.9,N
1604496095.8,286047006.3,N
1604496115.6,286047005.3,N
1604496135.4,286047001.3,N
1604496155.3,286047003.8,N
1604496175.1,286047003.0,N
1604496195.9,286047005.7,N
1604496215.7,286047012.0,N
1604496235.5,286047009.2,N
1604496255.4,286047004.5,N
1604496275.2,286047000.2,N
1604496295.0,286046999.7,N
1604496295.9,286046999.7,N
1604496315.8,286047000.2,N
1604496335.6,286047001.7,N
1604496355.5,286047000.8,N
1604496375.3,286046995.2,N
1604496395.1,286046997.5,N
1604496415.9,286046999.1,N
1604496435.7,286047000.5,N
1604496455.5,286047012.3,N
1604496475.4,286047013.3,N
1604496495.2,286047012.9,N
1604496515.1,286047012.8,N
1604496516.0,286047012.8,N
1604496535.8,286047014.9,N
1604496555.6,286047025.2,Y
1604496575.5,286047016.6,P
1604496595.3,286047022.8,P
1604496615.2,286047022.6,P
1604496635.9,286047022.6,Y
1604496655.7,286047007.1,P
1604496675.6,286047003.3,N
1604496695.4,286047002.1,N
1604496715.2,286046999.7,N
1604496735.1,286047004.6,N
1604496736.0,286047004.6,N
1604496755.8,286047006.9,N
1604496775.7,286047004.0,N
1604496795.5,286047003.1,N
1604496815.3,286047007.2,N
1604496835.2,286047006.8,N
1604496855.0,286047007.2,N
1604496855.9,286047007.2,N
1604496875.7,286047001.6,N
1604496895.6,286046999.6,N
1604496915.4,286046994.2,N
1604496935.3,286046992.6,N
1604496955.1,286046990.0,N
1604496956.0,286046990.0,N
1604496975.8,286046986.9,N
1604496995.7,286046986.5,N
1604497015.5,286046986.3,N
1604497035.4,286046985.5,N
1604497055.2,286046983.2,N
1604497075.0,286046984.3,N
1604497075.9,286046984.3,N
1604497095.8,286046989.7,N
1604497115.6,286046995.5,N
1604497135.4,286046996.8,N
1604497155.3,286046999.3,N
1604497175.1,286046996.7,N
1604497195.9,286046997.7,N
1604497215.7,286046995.1,N
1604497235.5,286047003.3,N
1604497255.4,286047004.5,N
1604497275.2,286047010.3,N
1604497295.0,286047012.0,N
1604497295.9,286047012.0,N
1604497315.8,286047018.7,N
1604497335.6,286047016.7,N
1604497355.5,286047016.8,N
1604497375.3,286047010.1,N
1604497395.1,286047008.8,N
1604497415.9,286047009.2,N
1604497435.7,286047007.2,N
1604497455.5,286047003.2,N
1604497475.4,286047002.2,N
1604497495.2,286046998.3,N
1604497515.1,286046996.1,N
1604497516.0,286046996.1,N
1604497535.8,286046993.1,N
1604497555.6,286046989.0,N
1604497575.5,286046991.1,N
1604497595.3,286046992.5,N
1604497615.1,286047000.2,N
1604497635.9,286046998.8,N
1604497655.7,286046998.7,N
1604497675.6,286047042.6,Y
1604497695.4,286047004.5,P
1604497715.2,286047012.2,P
1604497735.1,286047009.4,N
1604497736.0,286047009.4,N
1604497755.8,286047010.1,N
1604497775.6,286047009.1,N
1604497795.5,286047005.1,N
1604497815.3,286047005.0,N
1604497835.2,286047010.1,Y
1604497855.9,286046998.6,P
1604497875.7,286047000.4,N
1604497895.6,286046995.3,N
1604497915.4,286046992.6,N
1604497935.2,286046988.6,N
1604497955.1,286046992.6,N
1604497956.0,286046992.6,N
1604497975.8,286046987.1,N
1604497995.7,286046984.0,N
1604498015.5,286046984.2,N
1604498035.3,286046982.7,N
1604498055.2,286046982.8,N
1604498075.0,286046978.0,Y
1604498075.9,286046978.0,P
1604498095.8,286046990.3,N
1604498115.6,286046988.6,N
1604498135.4,286046990.7,N
1604498155.3,286046989.3,N
1604498175.1,286046984.6,Y
1604498195.9,286047000.5,P
1604498215.7,286047000.7,N
1604498235.5,286046996.7,N
1604498255.4,286046997.9,N
1604498275.2,286046996.0,N
1604498295.1,286046996.4,N
1604498296.0,286046996.4,N
1604498315.8,286047016.4,Y
1604498335.6,286046997.3,P
1604498355.5,286046997.8,P
1604498375.3,286046997.5,P
1604498395.2,286046997.2,Y
